• En España
  • Lista de países
  • Para 7 días
  • Temperatura del agua
  • Mapa Satelital
  • El tiempo en el mapa
  • Informadores
  • user-avatar
    Iniciar sesión

    Tiempo cada hora Annaba

    Hoy, 22 Julio, Domingo

    Tiempo Temperatura Precipitaciones Viento Presión Humedad
    00:00 +29°C° 0 mm 2 mps 759 mmHg 58%
    01:00 +28°C° 0 mm 1 mps 759 mmHg 60%
    02:00 +28°C° 0 mm 1 mps 759 mmHg 61%
    03:00 +28°C° 0 mm 1 mps 759 mmHg 62%
    04:00 +27°C° 0 mm 1 mps 758 mmHg 64%
    05:00 +28°C° 0 mm 1 mps 758 mmHg 63%
    06:00 +28°C° 0 mm 1 mps 759 mmHg 62%
    07:00 +28°C° 0 mm 1 mps 759 mmHg 61%
    08:00 +30°C° 0 mm 2 mps 759 mmHg 56%
    09:00 +32°C° 0 mm 2 mps 759 mmHg 51%
    10:00 +34°C° 0 mm 2 mps 758 mmHg 46%
    11:00 +36°C° 0 mm 3 mps 758 mmHg 43%
    12:00 +37°C° 0 mm 3 mps 758 mmHg 41%
    13:00 +38°C° 0 mm 3 mps 758 mmHg 38%
    14:00 +38°C° 0 mm 4 mps 758 mmHg 38%
    15:00 +38°C° 0 mm 4 mps 758 mmHg 38%
    16:00 +39°C° 0 mm 5 mps 758 mmHg 38%
    17:00 +37°C° 0 mm 4 mps 758 mmHg 41%
    18:00 +35°C° 0 mm 3 mps 758 mmHg 43%
    19:00 +34°C° 0 mm 2 mps 758 mmHg 46%
    20:00 +34°C° 0,1 mm 2 mps 758 mmHg 47%
    21:00 +32°C° 0,1 mm 2 mps 758 mmHg 49%
    22:00 +32°C° 0,1 mm 2 mps 759 mmHg 50%
    23:00 +31°C° 0 mm 2 mps 759 mmHg 53%

    Mañana, 23 Julio, Lunes

    Tiempo Temperatura Precipitaciones Viento Presión Humedad
    00:00 +30°C° 0 mm 3 mps 759 mmHg 56%
    01:00 +30°C° 0 mm 3 mps 759 mmHg 59%
    02:00 +29°C° 0 mm 2 mps 759 mmHg 63%
    03:00 +29°C° 0 mm 2 mps 758 mmHg 67%
    04:00 +28°C° 0 mm 1 mps 758 mmHg 70%
    05:00 +28°C° 0 mm 1 mps 759 mmHg 72%
    06:00 +27°C° 0 mm 2 mps 759 mmHg 73%
    07:00 +27°C° 0 mm 2 mps 759 mmHg 74%
    08:00 +29°C° 0 mm 2 mps 759 mmHg 66%
    09:00 +30°C° 0 mm 3 mps 760 mmHg 57%
    10:00 +33°C° 0 mm 3 mps 760 mmHg 49%
    11:00 +34°C° 0 mm 3 mps 760 mmHg 46%
    12:00 +35°C° 0 mm 4 mps 760 mmHg 43%
    13:00 +35°C° 0 mm 4 mps 760 mmHg 40%
    14:00 +35°C° 0 mm 4 mps 759 mmHg 40%
    15:00 +35°C° 0 mm 4 mps 759 mmHg 40%
    16:00 +35°C° 0 mm 4 mps 759 mmHg 39%
    17:00 +34°C° 0 mm 4 mps 759 mmHg 42%
    18:00 +31°C° 0 mm 3 mps 759 mmHg 45%
    19:00 +30°C° 0 mm 3 mps 759 mmHg 48%
    20:00 +29°C° 0 mm 2 mps 760 mmHg 54%
    21:00 +28°C° 0 mm 2 mps 760 mmHg 60%
    22:00 +26°C° 0 mm 1 mps 760 mmHg 66%
    23:00 +26°C° 0 mm 1 mps 760 mmHg 68%

    Pasado mañana, 24 Julio, Martes

    Tiempo Temperatura Precipitaciones Viento Presión Humedad
    00:00 +25°C° 0 mm 1 mps 760 mmHg 69%
    01:00 +25°C° 0 mm 1 mps 760 mmHg 70%
    02:00 +25°C° 0 mm 1 mps 759 mmHg 69%
    03:00 +24°C° 0 mm 1 mps 759 mmHg 68%
    04:00 +24°C° 0 mm 1 mps 759 mmHg 67%
    05:00 +25°C° 0 mm 1 mps 759 mmHg 62%
    06:00 +26°C° 0 mm 1 mps 759 mmHg 58%
    07:00 +27°C° 0 mm 1 mps 759 mmHg 53%
    08:00 +29°C° 0 mm 1 mps 759 mmHg 46%
    09:00 +31°C° 0 mm 1 mps 759 mmHg 40%
    10:00 +33°C° 0 mm 1 mps 759 mmHg 33%
    11:00 +35°C° 0 mm 2 mps 759 mmHg 32%
    12:00 +36°C° 0 mm 3 mps 759 mmHg 30%
    13:00 +37°C° 0 mm 4 mps 758 mmHg 28%
    14:00 +37°C° 0 mm 4 mps 758 mmHg 30%
    15:00 +36°C° 0 mm 4 mps 758 mmHg 31%
    16:00 +36°C° 0 mm 4 mps 758 mmHg 32%
    17:00 +35°C° 0 mm 3 mps 758 mmHg 36%
    18:00 +34°C° 0 mm 3 mps 758 mmHg 40%
    19:00 +31°C° 0 mm 2 mps 758 mmHg 44%
    20:00 +30°C° 0 mm 2 mps 759 mmHg 50%
    21:00 +28°C° 0 mm 1 mps 759 mmHg 56%
    22:00 +27°C° 0 mm 1 mps 759 mmHg 63%
    23:00 +27°C° 0 mm 1 mps 759 mmHg 62%

    25 Julio, Miércoles

    Tiempo Temperatura Precipitaciones Viento Presión Humedad
    00:00 +26°C° 0 mm 1 mps 759 mmHg 61%
    01:00 +26°C° 0 mm 1 mps 759 mmHg 60%
    02:00 +26°C° 0 mm 1 mps 758 mmHg 58%
    03:00 +26°C° 0 mm 1 mps 758 mmHg 56%
    04:00 +26°C° 0 mm 1 mps 758 mmHg 54%
    05:00 +27°C° 0 mm 1 mps 758 mmHg 50%
    06:00 +28°C° 0 mm 1 mps 758 mmHg 46%
    07:00 +29°C° 0 mm 1 mps 758 mmHg 42%
    08:00 +31°C° 0 mm 1 mps 758 mmHg 37%
    09:00 +34°C° 0 mm 2 mps 758 mmHg 31%
    10:00 +36°C° 0 mm 2 mps 759 mmHg 26%
    11:00 +37°C° 0 mm 3 mps 758 mmHg 25%
    12:00 +38°C° 0 mm 3 mps 758 mmHg 23%
    13:00 +40°C° 0 mm 4 mps 758 mmHg 22%
    14:00 +40°C° 0 mm 4 mps 757 mmHg 23%
    15:00 +40°C° 0 mm 4 mps 757 mmHg 24%
    16:00 +40°C° 0 mm 4 mps 757 mmHg 25%
    17:00 +38°C° 0 mm 4 mps 757 mmHg 28%
    18:00 +36°C° 0 mm 3 mps 757 mmHg 32%
    19:00 +35°C° 0 mm 3 mps 757 mmHg 36%
    20:00 +32°C° 0 mm 2 mps 757 mmHg 41%
    21:00 +30°C° 0 mm 2 mps 758 mmHg 45%
    22:00 +29°C° 0 mm 1 mps 758 mmHg 50%
    23:00 +28°C° 0 mm 1 mps 758 mmHg 50%

    26 Julio, Jueves

    Tiempo Temperatura Precipitaciones Viento Presión Humedad
    00:00 +28°C° 0 mm 1 mps 758 mmHg 50%
    01:00 +28°C° 0 mm 1 mps 758 mmHg 50%
    02:00 +27°C° 0 mm 1 mps 757 mmHg 50%
    03:00 +27°C° 0 mm 1 mps 757 mmHg 50%
    04:00 +27°C° 0 mm 1 mps 757 mmHg 50%
    05:00 +28°C° 0 mm 1 mps 757 mmHg 48%
    06:00 +28°C° 0 mm 1 mps 757 mmHg 46%
    07:00 +29°C° 0 mm 1 mps 757 mmHg 44%
    08:00 +31°C° 0 mm 1 mps 758 mmHg 39%
    09:00 +34°C° 0 mm 2 mps 758 mmHg 34%
    10:00 +36°C° 0 mm 2 mps 758 mmHg 29%
    11:00 +37°C° 0 mm 3 mps 758 mmHg 28%
    12:00 +38°C° 0 mm 3 mps 758 mmHg 27%
    13:00 +40°C° 0 mm 4 mps 757 mmHg 26%
    14:00 +38°C° 0 mm 4 mps 757 mmHg 27%
    15:00 +38°C° 0 mm 4 mps 757 mmHg 27%
    16:00 +38°C° 0 mm 4 mps 757 mmHg 28%
    17:00 +37°C° 0 mm 3 mps 757 mmHg 31%
    18:00 +35°C° 0 mm 3 mps 757 mmHg 34%
    19:00 +34°C° 0 mm 2 mps 758 mmHg 38%
    20:00 +31°C° 0 mm 2 mps 758 mmHg 43%
    21:00 +29°C° 0 mm 1 mps 758 mmHg 49%
    22:00 +28°C° 0 mm 1 mps 759 mmHg 55%
    23:00 +27°C° 0 mm 1 mps 759 mmHg 55%

    27 Julio, Viernes

    Tiempo Temperatura Precipitaciones Viento Presión Humedad
    00:00 +25°C° 0 mm 0 mps 759 mmHg 56%
    01:00 +25°C° 0 mm 0 mps 759 mmHg 56%
    02:00 +24°C° 0 mm 0 mps 759 mmHg 56%
    03:00 +24°C° 0 mm 0 mps 758 mmHg 56%
    04:00 +24°C° 0 mm 0 mps 758 mmHg 55%
    05:00 +25°C° 0 mm 0 mps 758 mmHg 52%
    06:00 +26°C° 0 mm 0 mps 758 mmHg 49%
    07:00 +26°C° 0 mm 0 mps 758 mmHg 45%
    08:00 +31°C° 0 mm 1 mps 758 mmHg 40%
    09:00 +33°C° 0 mm 1 mps 759 mmHg 34%
    10:00 +36°C° 0 mm 1 mps 759 mmHg 29%
    11:00 +38°C° 0 mm 2 mps 758 mmHg 27%
    12:00 +39°C° 0 mm 2 mps 758 mmHg 25%
    13:00 +39°C° 0 mm 3 mps 758 mmHg 23%
    14:00 +40°C° 0 mm 4 mps 758 mmHg 25%
    15:00 +40°C° 0 mm 4 mps 758 mmHg 26%
    16:00 +40°C° 0 mm 4 mps 757 mmHg 28%
    17:00 +37°C° 0 mm 4 mps 757 mmHg 32%
    18:00 +36°C° 0 mm 3 mps 758 mmHg 35%
    19:00 +34°C° 0 mm 3 mps 758 mmHg 39%
    20:00 +32°C° 0 mm 2 mps 758 mmHg 44%
    21:00 +30°C° 0 mm 2 mps 759 mmHg 49%
    22:00 +29°C° 0 mm 1 mps 759 mmHg 54%
    23:00 +28°C° 0 mm 1 mps 759 mmHg 54%
    Mostrar más